(264397) = 2000 EB100 = 2002 VF125

Discovered at Kitt Peak on 2000-03-12 by Spacewatch.

Orbit

Orbit type: Main Belt

Note: WebGL enabled browser required.

epoch2023-02-25.0
epoch JD2460000.5
perihelion date2022-01-20.01432
perihelion JD2459599.51432
argument of perihelion (°)108.45561
ascending node (°)354.06820
inclination (°)7.00613
eccentricity0.0726179
perihelion distance (AU)2.2376257
Tisserand w.r.t. Jupiter3.5
ΔV w.r.t. Earth (km/sec)9.6
semimajor axis (AU)2.4128411
mean anomaly (°)105.44831
mean daily motion (°/day)0.26297280
aphelion distance (AU)2.588
period (years)3.75
P-vector [x]-0.21757716
P-vector [y]0.84316416
P-vector [z]0.49166490
Q-vector [x]-0.97596172
Q-vector [y]-0.18143476
Q-vector [z]-0.12074829
absolute magnitude16.95
phase slope0.15
uncertainty0
referenceMPO 745323
observations used341
oppositions13
arc length (days)8505
first opposition used2000
last opposition used2023
residual rms (arc-secs)0.80
perturbers coarse indicatorM-v
perturbers precise indicator003Ek
first observation date used2000-03-03.0
last observation date used2023-06-16.0
computer nameMPCLINUX
JD of orbit computation2456612.592913
perihelion JD uncertainty (days)4.3403E-04
argument of perihelion uncertainty (°)1.3658E-04
ascending node uncertainty (°)4.4405E-05
inclination uncertainty (°)8.4825E-06
eccentricity uncertainty 9.6601E-08
perihelion distance uncertainty (AU)2.4983E-07
Minimum Orbit Intersection Distances (in AU)
for orbit epoch: 2460000.5, reference: E2023-M35
Mercury1.92024
Venus1.52272
Earth1.26537
Mars0.61271
Jupiter2.48987
Saturn6.84775
Uranus16.0968
Neptune27.4494

Observations

342 total observations over interval: 2000 03 03.34350 – 2023 06 16.314134
These data are available for download (format description).

Date (UT) J2000 RA J2000 Dec Magn Location Ref
2000 03 03.34350 11 34 02.10 +04 09 53.6   704 – Lincoln Laboratory ETS, New Mexico MPS 15698
2000 03 03.36175 11 34 01.03 +04 09 56.3   704 – Lincoln Laboratory ETS, New Mexico MPS 15698
2000 03 03.37569 11 34 00.10 +04 09 58.2   704 – Lincoln Laboratory ETS, New Mexico MPS 15698
2000 03 03.39000 11 33 59.28 +04 10 01.3   704 – Lincoln Laboratory ETS, New Mexico MPS 15698
2000 03 03.40419 11 33 58.40 +04 10 03.6   704 – Lincoln Laboratory ETS, New Mexico MPS 15698
2000 03 11.30829 11 25 51.76 +04 32 12.8 19.9   704 – Lincoln Laboratory ETS, New Mexico MPS 15698
2000 03 11.32086 11 25 51.00 +04 32 14.8 19.6   704 – Lincoln Laboratory ETS, New Mexico MPS 15698
2000 03 11.33341 11 25 50.20 +04 32 17.8 19.4   704 – Lincoln Laboratory ETS, New Mexico MPS 15698
2000 03 11.35107 11 25 49.06 +04 32 20.3 19.6   704 – Lincoln Laboratory ETS, New Mexico MPS 15698
2000 03 12.36003 11 24 46.32 +04 35 08.4 19.4 V 691 – Steward Observatory, Kitt Peak-Spacewatch MPS 11488
2000 03 12.38125 11 24 44.96 +04 35 11.8 19.3 V 691 – Steward Observatory, Kitt Peak-Spacewatch MPS 11488
2000 03 12.40232 11 24 43.60 +04 35 15.2 19.3 V 691 – Steward Observatory, Kitt Peak-Spacewatch MPS 11488
2000 03 14.32987 11 22 44.63 +04 40 31.2 19.9 V 691 – Steward Observatory, Kitt Peak-Spacewatch MPS 11488
2000 03 14.35090 11 22 43.29 +04 40 34.3 20.0 V 691 – Steward Observatory, Kitt Peak-Spacewatch MPS 11488
2000 03 14.37316 11 22 41.86 +04 40 38.2 20.0 V 691 – Steward Observatory, Kitt Peak-Spacewatch MPS 11488
2002 11 13.43489 03 24 27.75 +29 35 19.7 19.8   644 – Palomar Mountain/NEAT MPS 66536
2002 11 13.45521 03 24 26.31 +29 35 17.8 20.0   644 – Palomar Mountain/NEAT MPS 66536
2002 11 13.47558 03 24 24.86 +29 35 15.6 20.0   644 – Palomar Mountain/NEAT MPS 66536
2002 11 15.20653 03 22 25.40 +29 32 32.2 20.1   644 – Palomar Mountain/NEAT MPS 66536
2002 11 15.26963 03 22 20.91 +29 32 26.0 19.7   644 – Palomar Mountain/NEAT MPS 66536
2002 11 15.34088 03 22 15.77 +29 32 18.7 19.4   644 – Palomar Mountain/NEAT MPS 66536
2006 12 12.32043 06 40 13.24 +35 14 02.0 19.2   704 – Lincoln Laboratory ETS, New Mexico MPS 191780
2006 12 12.33323 06 40 12.43 +35 14 03.7 19.6   704 – Lincoln Laboratory ETS, New Mexico MPS 191780
2006 12 12.34611 06 40 11.62 +35 14 05.4 19.3   704 – Lincoln Laboratory ETS, New Mexico MPS 191780
2006 12 12.35919 06 40 10.81 +35 14 07.6 19.6   704 – Lincoln Laboratory ETS, New Mexico MPS 191780
2006 12 14.32140 06 38 06.44 +35 18 55.8 19.7 R 644 – Palomar Mountain/NEAT MPS 191780
2006 12 14.34202 06 38 05.05 +35 18 58.7 19.7 R 644 – Palomar Mountain/NEAT MPS 191780
2006 12 14.36332 06 38 03.60 +35 19 01.7 19.6 R 644 – Palomar Mountain/NEAT MPS 191780
2009 08 27.28461 23 30 37.07 -05 22 25.5 20.3 V 691 – Steward Observatory, Kitt Peak-Spacewatch MPS 292558
2009 08 27.30241 23 30 36.09 -05 22 28.8 20.3 V 691 – Steward Observatory, Kitt Peak-Spacewatch MPS 292558
2009 08 27.32023 23 30 35.13 -05 22 31.8 20.1 V 691 – Steward Observatory, Kitt Peak-Spacewatch MPS 292558
2009 09 20.29124 23 07 20.49 -06 32 20.9 19.9 V G96 – Mt. Lemmon Survey MPS 295719
2009 09 20.30006 23 07 19.99 -06 32 22.1 19.8 V G96 – Mt. Lemmon Survey MPS 295719
2009 09 20.30902 23 07 19.41 -06 32 23.7 20.0 V G96 – Mt. Lemmon Survey MPS 295719
2009 09 20.31794 23 07 18.91 -06 32 25.0 20.1 V G96 – Mt. Lemmon Survey MPS 295719
2010 11 06.43003 09 13 41.83 +23 35 31.3   691 – Steward Observatory, Kitt Peak-Spacewatch MPS 355185
2010 11 06.45216 09 13 43.50 +23 35 26.0   691 – Steward Observatory, Kitt Peak-Spacewatch MPS 355185
2010 11 06.47431 09 13 45.15 +23 35 20.8   691 – Steward Observatory, Kitt Peak-Spacewatch MPS 355185
2011 01 08.39970 09 41 13.66 +22 58 03.2 19.9 V 703 – Catalina Sky Survey MPS 365365
2011 01 08.40579 09 41 13.52 +22 58 05.2 20.2 V 703 – Catalina Sky Survey MPS 365365
2011 01 08.41204 09 41 13.20 +22 58 06.5 20.8 V 703 – Catalina Sky Survey MPS 365365
2011 01 08.41852 09 41 12.98 +22 58 08.5 19.6 V 703 – Catalina Sky Survey MPS 365365
2011 01 11.33899 09 39 22.01 +23 06 40.1 20.0 V 691 – Steward Observatory, Kitt Peak-Spacewatch MPS 365365
2011 01 11.35674 09 39 21.20 +23 06 43.5 20.0 V 691 – Steward Observatory, Kitt Peak-Spacewatch MPS 365365
2011 01 11.37452 09 39 20.44 +23 06 46.4 20.0 V 691 – Steward Observatory, Kitt Peak-Spacewatch MPS 365365
2011 01 24.49348 09 27 56.73 +23 46 28.9 19.0 V 703 – Catalina Sky Survey MPS 366908
2011 01 24.50052 09 27 56.34 +23 46 29.3 20.0 V 703 – Catalina Sky Survey MPS 366908
2011 01 24.50758 09 27 55.94 +23 46 31.3 19.3 V 703 – Catalina Sky Survey MPS 366908
2011 01 24.51465 09 27 55.47 +23 46 31.6 19.8 V 703 – Catalina Sky Survey MPS 366908
2011 01 30.25787 09 21 47.14 +24 01 38.6 19.1 R H15 – ISON-NM Observatory, Mayhill MPS 368497
2011 01 30.27351 09 21 46.04 +24 01 41.3 19.5 R H15 – ISON-NM Observatory, Mayhill MPS 368497
2011 01 30.28758 09 21 45.05 +24 01 43.7 19.3 R H15 – ISON-NM Observatory, Mayhill MPS 368497
2011 01 30.30163 09 21 44.06 +24 01 46.1 19.4 R H15 – ISON-NM Observatory, Mayhill MPS 368497
2011 01 30.52970 09 21 28.657 +24 02 19.27 19.7 w F51 – Pan-STARRS 1, Haleakala MPS 379967
2011 01 30.54482 09 21 27.604 +24 02 21.31 19.7 w F51 – Pan-STARRS 1, Haleakala MPS 379967
2011 01 30.56224 09 21 26.403 +24 02 23.59 19.7 w F51 – Pan-STARRS 1, Haleakala MPS 379967
2011 01 30.57738 09 21 25.359 +24 02 25.53 19.7 w F51 – Pan-STARRS 1, Haleakala MPS 379967
2011 02 06.31532 09 13 48.79 +24 15 25.2 18.5 V 703 – Catalina Sky Survey MPS 369419
2011 02 06.31998 09 13 48.54 +24 15 25.4 18.4 V 703 – Catalina Sky Survey MPS 369419
2011 02 06.32465 09 13 48.25 +24 15 25.7 18.8 V 703 – Catalina Sky Survey MPS 369419
2011 02 06.32924 09 13 47.82 +24 15 27.6 19.9 V 703 – Catalina Sky Survey MPS 369419
2011 02 07.30389 09 12 41.70 +24 16 49.2 20.1   704 – Lincoln Laboratory ETS, New Mexico MPS 369419
2011 02 07.31850 09 12 40.62 +24 16 50.6 20.3   704 – Lincoln Laboratory ETS, New Mexico MPS 369419
2011 02 07.33258 09 12 39.67 +24 16 51.7 20.3   704 – Lincoln Laboratory ETS, New Mexico MPS 369419
2011 02 07.34719 09 12 38.56 +24 16 52.8 20.0   704 – Lincoln Laboratory ETS, New Mexico MPS 369419
2011 03 02.15334 08 50 51.00 +24 04 55.9 20.7 V 703 – Catalina Sky Survey MPS 373325
2011 03 02.16164 08 50 50.64 +24 04 55.4 20.0 V 703 – Catalina Sky Survey MPS 373325
2011 03 02.16987 08 50 50.20 +24 04 53.6 20.1 V 703 – Catalina Sky Survey MPS 373325
2011 03 02.17814 08 50 49.77 +24 04 53.5 20.0 V 703 – Catalina Sky Survey MPS 373325
2013 09 15.55322 01 30 16.174 +13 15 46.28 20.2 w F51 – Pan-STARRS 1, Haleakala MPS 477507
2013 09 15.56695 01 30 15.632 +13 15 46.81 20.3 w F51 – Pan-STARRS 1, Haleakala MPS 477507
2013 09 15.58079 01 30 15.090 +13 15 47.42 20.3 w F51 – Pan-STARRS 1, Haleakala MPS 477507
2013 09 15.59464 01 30 14.552 +13 15 47.84 20.4 w F51 – Pan-STARRS 1, Haleakala MPS 477507
2013 09 30.61558 01 18 15.96 +13 08 32.1 20.8 R D29 – Purple Mountain Observatory, XuYi Station MPS 486911
2013 09 30.63148 01 18 15.03 +13 08 30.8 21.0 R D29 – Purple Mountain Observatory, XuYi Station MPS 486911
2013 10 07.40336 01 11 32.20 +12 54 47.6 20.1 V G96 – Mt. Lemmon Survey MPS 482029
2013 10 07.40694 01 11 32.00 +12 54 47.1 19.4 V G96 – Mt. Lemmon Survey MPS 482029
2013 10 07.41060 01 11 31.76 +12 54 46.8 19.4 V G96 – Mt. Lemmon Survey MPS 482029
2013 10 07.41424 01 11 31.51 +12 54 46.2 19.5 V G96 – Mt. Lemmon Survey MPS 482029
2013 10 11.26481 01 07 33.36 +12 44 39.9 19.6 V 703 – Catalina Sky Survey MPS 482029
2013 10 11.26976 01 07 33.05 +12 44 39.8 20.4 V 703 – Catalina Sky Survey MPS 482029
2013 10 11.27475 01 07 32.70 +12 44 37.8 19.8 V 703 – Catalina Sky Survey MPS 482029
2013 10 11.27973 01 07 32.31 +12 44 38.1 19.4 V 703 – Catalina Sky Survey MPS 482029
2013 10 12.20075 01 06 35.14 +12 41 59.5 20.0 G G45 – Space Surveillance Telescope, Atom Site MPS 1608634
2013 10 12.25550 01 06 31.60 +12 41 50.1 20.0 G G45 – Space Surveillance Telescope, Atom Site MPS 1608634
2013 10 12.30274 01 06 28.55 +12 41 42.1 20.7 G G45 – Space Surveillance Telescope, Atom Site MPS 1608634
2013 10 12.41458 01 06 21.37 +12 41 22.0 20.4 G G45 – Space Surveillance Telescope, Atom Site MPS 1608634
